Location: Gro�sch�nbrunn
(49.5760°N, 11.8868°E)
Time: 15:30:23
(UTC+00:00)

ISS - Pass Details

Date: 27 November 2020
Orbit: 418 x 419 km, 51.6° (Epoch: 17 January)

Event Time Altitude Azimuth Distance (km) Brightness Sun altitude
Rises 16:12:44 0° 246° (WSW) 2,359 2.6 -8.7°
Reaches altitude 10° 16:14:50 10° 245° (WSW) 1,497 0.7 -9.1°
Maximum altitude 16:18:11 78° 160° (SSE) 433 -3.7 -9.6°
Enters shadow 16:20:55 15° 74° (ENE) 1,243 -2.0 -10.0°
